World > North America > United States > Washington   City of Wenatchee, WA

Wenatchee, Washington Regional Weather

Lat: 47.43N, Lon: 120.32W
Wx Zone: WAZ041Web Search

Helpful Tip: Abbreviated, 7 Day, 14 Day Forecasts. There is a weather forecast for every taste.

Feedback
Wenatchee Weather Map
UTC Time: 1/19/2021, 02:28
Your Time:

Wenatchee, WA Regional Weather

Expires:202101190300;;135123
ASUS46 KSEW 190220
RWRWA 

WASHINGTON REGIONAL WEATHER ROUNDUP
NATIONAL WEATHER SERVICE SEATTLE WA
600 PM PST MON JAN 18 2021

NOTE:"FAIR" INDICATES FEW OR NO CLOUDS BELOW 12,000 FEET WITH NO 
SIGNIFICANT WEATHER AND/OR OBSTRUCTIONS TO VISIBILITY.


WAZ026-027-041>044-520-521-190300-
EAST SLOPES
  
CITY           SKY/WX    TMP DP  RH WIND       PRES   REMARKS
OMAK           CLEAR     43  25  49 N9        30.52R                  
WENATCHEE      NOT AVBL                                               
ELLENSBURG     CLEAR     37  27  67 E7        30.48R                  
YAKIMA         CLEAR     37  27  67 W3        30.49R                  
SUNNYSIDE ARPT CLEAR     35  29  80 CALM      30.51                   
YAKIMA TC      FAIR      38  26  60 E8        30.47R                  
$$


SKY/WX - Weather  TMP - Temperature  DP - Dew Point  RH - Relative Humidity
WIND - Wind Direction/Speed PRES - Barometric Pressure VSB - Visibility
WCI - Wind Chill Index E13G22 Wind - East Wind 13 mph/Gusts of 22 mph